Tracking 19709 objects as of 19-Jun-2019
HD Live streaming from Space Station
objects crossing your sky now

COSMOS 1634

Track COSMOS 1634 now!
10-day predictions
COSMOS 1634 is classified as:


NORAD ID: 15597
Int'l Code: 1985-022A
Perigee: 962.9 km
Apogee: 1,014.1 km
Inclination: 82.9 °
Period: 104.7 minutes
Semi major axis: 7359 km
RCS: 2.2034 m2 (large)
Launch date: March 14, 1985
Source: Commonwealth of Independent States (former USSR) (CIS)
Launch site: PLESETSK MISSILE AND SPACE COMPLEX (PKMTR)
aabbcc
Your satellite tracking list
Your tracking list is empty




NASA's NSSDC Master Catalog

Two Line Element Set (TLE):
1 15597U 85022A   19169.91691641 +.00000018 +00000-0 +33228-5 0  9999
2 15597 082.9396 309.8656 0034769 328.4201 147.0529 13.75078194719046
Source of the keplerian elements: AFSPC